FLOCK 3P-59 (42022 NORAD) Tracking and Keplerian Element Data

This shows tracking and keplerian element data for the satellite.

Feedback or suggestion? Click here.




ElementValue
Catalog42022
NameFLOCK 3P-59
Epoch Orbit17616
Epoch Day114.73426263
Epoch Year2020
RAAN184.1027
Inclination97.3683
Eccentricity0.0008839
Argument of Perigee121.9695
Mean Anonmoly238.2404
Mean Motion15.2777639
Decay Rate2.903E-05
L11 42022U 17008CC 20114.73426263 .00002903 00000-0 10963-3 0 9993
L22 42022 97.3683 184.1027 0008839 121.9695 238.2404 15.27776390176163

Live tracking and technical data element details for FLOCK 3P-59 (NORAD 42022). FLOCK 3P-59 can be tracked NOW for your location showing map with azimuth and elevation plus other details from your city location.

Track the satellite on the map from your city or location and see movement details for azimuth, elevation, latitude, longitude, range, height, and movement on the map or in text.







IsCatalogInMostPopularTable: catalog: 42022, numindb: 535
Update: records affected: 1



GetName: 42022 FLOCK 3P-59

Hit Count: updated at: Mon, 27 Sep 2021 01:18:04 GMT